Regional Weather Roundup
Issued by NWS

Home | Current Version | Previous Version | Text Only | Print | Product List | Glossary Off
Versions: 1 2 3 4 5 6 7 8 9 10 11 12 13 14 15 16 17 18 19 20 21 22 23 24 25 26 27 28 29 30 31 32 33 34 35 36 37 38 39 40 41 42 43 44 45 46 47 48 49 50

321
ASUS45 KSLC 270710
RWRUT

UTAH REGIONAL WEATHER ROUNDUP
NATIONAL WEATHER SERVICE SALT LAKE CITY UT
100 AM MDT TUE JUN 27 2017

UTZ001>011-023>025-270800-

NORTHERN UTAH

CITY           SKY/WX    TMP DP  RH WIND       PRES   REMARKS
BRIGHAM CITY   MOCLDY    77  38  24 NW14      29.85R
HILL AFB       CLOUDY    81  36  19 SE8       29.87S
LOGAN          PTCLDY    65  48  54 NW9       29.86F
OGDEN          MOCLDY    81  37  20 S10       29.84S
SALT LAKE CITY MOCLDY    84  37  18 SE14      29.81F
TOOELE VALLEY  PTCLDY    84  27  12 S20G30    29.83S
WENDOVER         N/A     85  39  19 NW17G24   29.88R
HEBER CITY     CLEAR     55  43  62 CALM      30.00S
WEST JORDAN    PTCLDY    80  50  35 SE15      29.88S

$$

UTZ011>015-024>027-270800-

CENTRAL/NORTHEAST UTAH

CITY           SKY/WX    TMP DP  RH WIND       PRES   REMARKS
PROVO AIRPORT  CLEAR     70  42  36 MISG      29.91S
MOAB/CANYONLAN PTCLDY    83  25  12 SW6       29.89S
DELTA          CLEAR     73  10   9 S13       29.94S
PRICE          PTCLDY    70  28  21 NW9       30.03R
VERNAL         CLEAR     67  40  37 NW8       29.99S

$$

UTZ013>016-019>022-027-270800-

SOUTHERN UTAH

CITY           SKY/WX    TMP DP  RH WIND       PRES   REMARKS
BRYCE CANYON   CLEAR     40  21  46 SW7       30.26F
CEDAR CITY     CLEAR     68  11  11 SW7       30.06S
MILFORD        CLEAR     73  12   9 S15       29.99S
ST GEORGE      SUNNY     82  14   8 E9        29.86R
HANKSVILLE     CLEAR     79  23  12 W3        29.95S
BLANDING       MOCLDY    75  28  17 SE7       30.16S

$$

REGIONAL REPORTS     COLORADO/ARIZONA

CITY           SKY/WX    TMP DP  RH WIND       PRES   REMARKS
CRAIG, CO      CLEAR     61  38  42 E5        30.10S
GRAND JUNCTION CLEAR     76  28  17 E10       29.96S
RIFLE, CO      CLOUDY    67  31  26 E3        30.06S
MONTROSE, CO   CLOUDY    71  32  23 SE9       30.07F
CORTEZ, CO     CLEAR     63  39  41 CALM      30.12S
COLORADO CITY    N/A     64  21  19 CALM      30.07S
PAGE, AZ       CLEAR     83  21  10 S6        29.97S
GRAND CANYON   CLEAR     52  23  32 CALM      30.22F
KINGMAN, AZ    CLEAR     82  23  11 S12       29.96S
FLAGSTAFF, AZ  CLEAR     59  25  27 CALM      30.27S

$$

REGIONAL REPORTS    NEVADA/IDAHO/WYOMING

CITY           SKY/WX    TMP DP  RH WIND       PRES   REMARKS
LAS VEGAS, NV  CLEAR     93  14   5 SW13G29   29.78S
ELY, NY        CLEAR     67  32  27 W10       30.09R
ELKO, NV       MOCLDY    65  37  35 W6        30.03R
POCATELLO, ID  LGT RAIN  73  47  39 SW33G41   29.96R
BURLEY, ID     CLOUDY    70  51  51 CALM      29.87F
FORT BRIDGER,    N/A     69  34  27 SE8       30.14F
EVANSTON, WY   CLOUDY    66  37  34 SE9       30.10F
ROCK SPRINGS,  CLOUDY    64  29  26 W9        30.11R
KEMMERER, WY     N/A     68  32  26 CALM      30.12F

$$




USA.gov is the U.S. government's official web portal to all federal, state and local government web resources and services.